Tracking 20242 objects as of 24-Jan-2020
HD Live streaming from Space Station
objects crossing your sky now

FENGYUN 1C DEB

Track FENGYUN 1C DEB now!
10-day predictions


NORAD ID: 30565
Int'l Code: 1999-025ALF
Perigee: 796.8 km
Apogee: 1,033.9 km
Inclination: 98.4 °
Period: 103.2 minutes
Semi major axis: 7286 km
RCS: 0.0268 m2 (small)
Launch date: May 10, 1999
Source: People's Republic of China (PRC)
Launch site: Taiyaun Space Center, China (TSC)

Note: This is SATELLITE DEBRIS
aabbcc
Your satellite tracking list
Your tracking list is empty




NASA's NSSDC Master Catalog

Two Line Element Set (TLE):
1 30565U 99025ALF 20022.99092701 +.00000563 +00000-0 +39500-3 0  9991
2 30565 098.4415 020.9029 0162697 278.2788 143.5995 13.95847347658238
Source of the keplerian elements: AFSPC